Location: Unspecified
(54.1780°N, 0.0000°E)
Time: 20:21:47
(UTC+00:00)

Transit 2A - Pass Details

Date: 18 June 2019
Orbit: 594 x 965 km, 66.7° (Epoch: 17 July)

Event Time Altitude Azimuth Distance (km) Brightness Sun altitude
Rises 09:39:54 0° 318° (NW) 3,532 9.0 49.5°
Reaches altitude 10° 09:42:33 10° 315° (NW) 2,539 8.4 49.8°
Maximum altitude 09:48:20 64° 236° (SW) 904 7.1 50.5°
Drops below altitude 10° 09:53:31 10° 156° (SSE) 2,277 9.2 51.1°
Sets 09:55:46 0° 153° (SSE) 3,140 9.7 51.3°
